Flag Weather past 2 weeks in Stans, Nidwalden, Switzerland

Now
42 °F

Quite cool.


Feels Like: 42 °F
Forecast: 43 / 64 °F
Wind: 2 mph from Southwest

Location: Giswil

Current Time: Nov 23, 2014 at 11:40:35 PM

Latest Report: Nov 23, 2014 at 11:00 PM


Visibility: N/A

Pressure: 30.23 "Hg

Humidity: 100%

Dew point: 42 °F

Location of StansLocation

Historic Weather in Stans — Graph

°F

Stans temperature yesterday

Maximum temperature yesterday: 52 °F (at 3:00 PM)
Minimum temperature yesterday: 33 °F (at 8:00 AM)
Average temperature yesterday: 41 °F

Past Weeks' High & Low Weather Summary

 TemperatureHumidityPressure
High52 °F (Nov 22, 3:00 PM)100% (Nov 8, 9:00 PM)30.33 "Hg (Nov 8, 9:00 PM)
Low30 °F (Nov 20, 2:00 AM)69% (Nov 19, 2:00 PM)29.59 "Hg (Nov 15, 6:00 PM)
Average42 °F97%29.94 "Hg
* Reported Nov 8 9:00 PM — Nov 23 9:00 PM, Stans, Weather by CustomWeather, © 2014

Note: Actual official high and low records may vary slightly from our data, if they occured in-between our weather recording intervals... More about our weather records

Advertising

Stans weather history for previous 24 hours

 ConditionsComfort  
Time TempWeatherWind HumidityBarometerVisibility
9:00 PM
Nov 23
42 °FQuite cool.1 mph100%30.24 "HgN/A
8:00 PM42 °FQuite cool.No wind100%30.23 "HgN/A
7:00 PM42 °FQuite cool.No wind100%30.22 "HgN/A
6:00 PM42 °FQuite cool.2 mph100%30.22 "HgN/A
5:00 PM42 °FQuite cool.1 mph100%30.22 "HgN/A
4:00 PM42 °FQuite cool.No wind100%30.21 "HgN/A
3:00 PM42 °FQuite cool.No wind100%30.23 "HgN/A
2:00 PM42 °FQuite cool.1 mph100%30.24 "HgN/A
1:00 PM42 °FQuite cool.1 mph100%30.26 "HgN/A
12:00 PM41 °FQuite cool.1 mph100%30.27 "HgN/A
11:00 AM39 °FChilly.No wind100%30.29 "HgN/A
10:00 AM37 °FChilly.No wind100%30.28 "HgN/A
9:00 AM35 °FChilly.No wind100%30.28 "HgN/A
8:00 AM35 °FChilly.1 mph100%30.28 "HgN/A
7:00 AM35 °FChilly.1 mph100%30.27 "HgN/A
6:00 AM36 °FChilly.1 mph100%30.27 "HgN/A
5:00 AM36 °FChilly.1 mph100%30.27 "HgN/A
4:00 AM36 °FChilly.1 mph100%30.27 "HgN/A
3:00 AM36 °FChilly.1 mph100%30.27 "HgN/A
2:00 AM36 °FChilly.1 mph100%30.26 "HgN/A
1:00 AM38 °FChilly.1 mph100%30.26 "HgN/A
12:00 AM38 °FChilly.1 mph100%30.26 "HgN/A
11:00 PM
Nov 22
38 °FChilly.1 mph100%30.25 "HgN/A
Weather by CustomWeather, © 2014

See weather overviewHow to use our weather pages